| time (UTC) | temp C | wind direction | speed KPH | gust KPH | rain 1hr cm | rain 24hr cm | rain mn cm | humidity % | barometer mb |
| 20260503041426 | 15 | 127 | 12.9 | 20.9 | 0.00 | 0.00 | 0.00 | ||
| 20260503041024 | 15 | 146 | 8.0 | 12.9 | 0.00 | 0.00 | 0.00 | ||
| 20260503040616 | 15 | 142 | 9.7 | 17.7 | 0.00 | 0.00 | 0.00 | ||
| 20260503040214 | 15 | 136 | 9.7 | 16.1 | 0.00 | 0.00 | 0.00 | ||
| 20260503035812 | 15 | 121 | 8.0 | 12.9 | 0.00 | 0.00 | 0.00 | ||
| 20260503035411 | 15 | 129 | 9.7 | 16.1 | 0.00 | 0.00 | 0.00 | ||
| 20260503035009 | 14 | 133 | 11.3 | 16.1 | 0.00 | 0.00 | 0.00 | ||
| 20260503034608 | 14 | 135 | 8.0 | 14.5 | 0.00 | 0.00 | 0.00 | ||
| 20260503034205 | 14 | 153 | 9.7 | 16.1 | 0.00 | 0.00 | 0.00 | ||
| 20260503033804 | 13 | 129 | 9.7 | 16.1 | 0.00 | 0.00 | 0.00 | ||
| 20260503033403 | 14 | 140 | 8.0 | 16.1 | 0.00 | 0.00 | 0.00 | ||
| 20260503033001 | 14 | 131 | 9.7 | 16.1 | 0.00 | 0.00 | 0.00 | ||
| 20260503032553 | 14 | 138 | 9.7 | 12.9 | 0.00 | 0.00 | 0.00 | ||
| 20260503032150 | 13 | 124 | 9.7 | 14.5 | 0.00 | 0.00 | 0.00 | ||
| 20260503031749 | 14 | 129 | 9.7 | 16.1 | 0.00 | 0.00 | 0.00 | ||
| 20260503031348 | 13 | 125 | 9.7 | 14.5 | 0.00 | 0.00 | 0.00 | ||
| 20260503030947 | 13 | 121 | 8.0 | 12.9 | 0.00 | 0.00 | 0.00 | ||
| 20260503030545 | 14 | 126 | 9.7 | 12.9 | 0.00 | 0.00 | 0.00 | ||
| 20260503030143 | 13 | 123 | 11.3 | 16.1 | 0.00 | 0.00 | 0.00 | ||
| 20260503025742 | 13 | 136 | 9.7 | 14.5 | 0.00 | 0.00 | 0.00 | ||
| 20260503025341 | 13 | 135 | 11.3 | 14.5 | 0.00 | 0.00 | 0.00 | ||
| 20260503024938 | 13 | 153 | 9.7 | 12.9 | 0.00 | 0.00 | 0.00 | ||
| 20260503024530 | 13 | 156 | 9.7 | 12.9 | 0.00 | 0.00 | 0.00 | ||
| 20260503024128 | 13 | 142 | 8.0 | 11.3 | 0.00 | 0.00 | 0.00 | ||
| 20260503023727 | 13 | 154 | 8.0 | 9.7 | 0.00 | 0.00 | 0.00 | ||
| 20260503023325 | 13 | 131 | 8.0 | 12.9 | 0.00 | 0.00 | 0.00 | ||
| 20260503022923 | 13 | 141 | 8.0 | 11.3 | 0.00 | 0.00 | 0.00 | ||
| 20260503022522 | 13 | 141 | 9.7 | 14.5 | 0.00 | 0.00 | 0.00 | ||
| 20260503022120 | 13 | 146 | 11.3 | 14.5 | 0.00 | 0.00 | 0.00 | ||
| 20260503021719 | 13 | 140 | 11.3 | 16.1 | 0.00 | 0.00 | 0.00 | ||
| 20260503021317 | 13 | 150 | 11.3 | 12.9 | 0.00 | 0.00 | 0.00 | ||
| 20260503020915 | 13 | 154 | 8.0 | 11.3 | 0.00 | 0.00 | 0.00 | ||
| 20260503020507 | 13 | 159 | 6.4 | 9.7 | 0.00 | 0.00 | 0.00 | ||
| 20260503020105 | 14 | 150 | 8.0 | 12.9 | 0.00 | 0.00 | 0.00 | ||
| 20260503015703 | 14 | 143 | 11.3 | 14.5 | 0.00 | 0.00 | 0.00 | ||
| 20260503015305 | 14 | 150 | 9.7 | 14.5 | 0.00 | 0.00 | 0.00 | ||
| 20260503014901 | 14 | 136 | 8.0 | 14.5 | 0.00 | 0.00 | 0.00 | ||
| 20260503014500 | 14 | 126 | 11.3 | 14.5 | 0.00 | 0.00 | 0.00 | ||
| 20260503014057 | 14 | 137 | 11.3 | 19.3 | 0.00 | 0.00 | 0.00 | ||
| 20260503013656 | 14 | 136 | 11.3 | 20.9 | 0.00 | 0.00 | 0.00 | ||
| 20260503013255 | 15 | 132 | 8.0 | 14.5 | 0.00 | 0.00 | 0.00 | ||
| 20260503012853 | 14 | 117 | 11.3 | 25.7 | 0.00 | 0.00 | 0.00 | ||
| 20260503012444 | 14 | 136 | 11.3 | 16.1 | 0.00 | 0.00 | 0.00 | ||
| 20260503012042 | 14 | 120 | 9.7 | 12.9 | 0.00 | 0.00 | 0.00 | ||
| 20260503011641 | 14 | 134 | 8.0 | 17.7 | 0.00 | 0.00 | 0.00 | ||
| 20260503011241 | 13 | 169 | 4.8 | 14.5 | 0.00 | 0.00 | 0.00 | ||
| 20260503010837 | 14 | 143 | 8.0 | 12.9 | 0.00 | 0.00 | 0.00 | ||
| 20260503010435 | 14 | 123 | 9.7 | 16.1 | 0.00 | 0.00 | 0.00 | ||
| 20260503010033 | 14 | 132 | 11.3 | 14.5 | 0.00 | 0.00 | 0.00 | ||
| 20260503005632 | 14 | 120 | 9.7 | 16.1 | 0.00 | 0.00 | 0.00 | ||
| 20260503005231 | 14 | 121 | 9.7 | 14.5 | 0.00 | 0.00 | 0.00 | ||
| 20260503004828 | 14 | 115 | 6.4 | 9.7 | 0.00 | 0.00 | 0.00 | ||
| 20260503004420 | 14 | 121 | 8.0 | 12.9 | 0.00 | 0.00 | 0.00 | ||
| 20260503004018 | 14 | 120 | 8.0 | 11.3 | 0.00 | 0.00 | 0.00 | ||
| 20260503003617 | 14 | 124 | 9.7 | 14.5 | 0.00 | 0.00 | 0.00 | ||
| 20260503003215 | 15 | 138 | 8.0 | 14.5 | 0.00 | 0.00 | 0.00 | ||
| 20260503002813 | 14 | 137 | 9.7 | 17.7 | 0.00 | 0.00 | 0.00 | ||
| 20260503002011 | 14 | 120 | 8.0 | 11.3 | 0.00 | 0.00 | 0.00 | ||
| 20260503001608 | 14 | 129 | 8.0 | 14.5 | 0.00 | 0.00 | 0.00 | ||
| 20260503001207 | 14 | 136 | 4.8 | 9.7 | 0.00 | 0.00 | 0.00 | ||
| 20260503000806 | 14 | 122 | 4.8 | 9.7 | 0.00 | 0.00 | 0.00 | ||
| 20260503000400 | 14 | 125 | 8.0 | 12.9 | 0.00 | 0.00 | 0.00 | ||
| 20260502235956 | 14 | 125 | 6.4 | 12.9 | 0.00 | 0.00 | 0.00 | ||
| 20260502235554 | 14 | 118 | 9.7 | 12.9 | 0.00 | 0.00 | 0.00 | ||
| 20260502235153 | 14 | 117 | 8.0 | 12.9 | 0.00 | 0.00 | 0.00 | ||
| 20260502234751 | 14 | 117 | 6.4 | 11.3 | 0.00 | 0.00 | 0.00 | ||
| 20260502234350 | 14 | 115 | 8.0 | 12.9 | 0.00 | 0.00 | 0.00 | ||
| 20260502233946 | 15 | 118 | 9.7 | 16.1 | 0.00 | 0.00 | 0.00 | ||
| 20260502233545 | 14 | 105 | 9.7 | 14.5 | 0.00 | 0.00 | 0.00 | ||
| 20260502233144 | 15 | 108 | 12.9 | 14.5 | 0.00 | 0.00 | 0.00 | ||
| 20260502232742 | 15 | 106 | 11.3 | 12.9 | 0.00 | 0.00 | 0.00 | ||
| 20260502232332 | 15 | 114 | 11.3 | 16.1 | 0.00 | 0.00 | 0.00 | ||
| 20260502231931 | 15 | 109 | 11.3 | 14.5 | 0.00 | 0.00 | 0.00 | ||
| 20260502231530 | 15 | 108 | 12.9 | 16.1 | 0.00 | 0.00 | 0.00 | ||
| 20260502231128 | 15 | 112 | 11.3 | 16.1 | 0.00 | 0.00 | 0.00 | ||
| 20260502230725 | 15 | 107 | 11.3 | 16.1 | 0.00 | 0.00 | 0.00 | ||
| 20260502230324 | 15 | 108 | 12.9 | 17.7 | 0.00 | 0.00 | 0.00 | ||
| 20260502225922 | 15 | 112 | 9.7 | 14.5 | 0.00 | 0.00 | 0.00 | ||
| 20260502225521 | 14 | 125 | 8.0 | 14.5 | 0.00 | 0.00 | 0.00 | ||
| 20260502225120 | 13 | 135 | 3.2 | 8.0 | 0.00 | 0.00 | 0.00 | ||
| 20260502224717 | 14 | 138 | 6.4 | 11.3 | 0.00 | 0.00 | 0.00 | ||
| 20260502224309 | 15 | 135 | 4.8 | 6.4 | 0.00 | 0.00 | 0.00 | ||
| 20260502223908 | 15 | 117 | 6.4 | 8.0 | 0.00 | 0.00 | 0.00 | ||
| 20260502223507 | 15 | 109 | 8.0 | 11.3 | 0.00 | 0.00 | 0.00 | ||
| 20260502223104 | 15 | 114 | 8.0 | 11.3 | 0.00 | 0.00 | 0.00 | ||
| 20260502222703 | 15 | 111 | 8.0 | 14.5 | 0.00 | 0.00 | 0.00 | ||
| 20260502222305 | 15 | 114 | 9.7 | 12.9 | 0.00 | 0.00 | 0.00 | ||
| 20260502221900 | 15 | 120 | 8.0 | 11.3 | 0.00 | 0.00 | 0.00 | ||
| 20260502221458 | 15 | 126 | 8.0 | 11.3 | 0.00 | 0.00 | 0.00 | ||
| 20260502221057 | 15 | 115 | 9.7 | 14.5 | 0.00 | 0.00 | 0.00 | ||
| 20260502220655 | 15 | 112 | 8.0 | 9.7 | 0.00 | 0.00 | 0.00 | ||
| 20260502220247 | 15 | 114 | 6.4 | 11.3 | 0.00 | 0.00 | 0.00 | ||
| 20260502215844 | 15 | 114 | 6.4 | 9.7 | 0.00 | 0.00 | 0.00 | ||
| 20260502215443 | 15 | 111 | 8.0 | 11.3 | 0.00 | 0.00 | 0.00 | ||
| 20260502215042 | 14 | 106 | 6.4 | 8.0 | 0.00 | 0.00 | 0.00 | ||
| 20260502214640 | 14 | 111 | 4.8 | 8.0 | 0.00 | 0.00 | 0.00 | ||
| 20260502214239 | 14 | 111 | 4.8 | 6.4 | 0.00 | 0.00 | 0.00 | ||
| 20260502213836 | 15 | 98 | 6.4 | 9.7 | 0.00 | 0.00 | 0.00 | ||
| 20260502213435 | 14 | 111 | 8.0 | 9.7 | 0.00 | 0.00 | 0.00 | ||
| 20260502213034 | 14 | 111 | 6.4 | 9.7 | 0.00 | 0.00 | 0.00 | ||
| 20260502212632 | 13 | 111 | 6.4 | 8.0 | 0.00 | 0.00 | 0.00 | ||
| 20260502212223 | 13 | 111 | 4.8 | 6.4 | 0.00 | 0.00 | 0.00 | ||
| 20260502211822 | 13 | 122 | 4.8 | 4.8 | 0.00 | 0.00 | 0.00 | ||
| 20260502211421 | 13 | 135 | 1.6 | 4.8 | 0.00 | 0.00 | 0.00 | ||
| 20260502211020 | 13 | 135 | 4.8 | 6.4 | 0.00 | 0.00 | 0.00 | ||
| 20260502210617 | 13 | 135 | 4.8 | 4.8 | 0.00 | 0.00 | 0.00 | ||
| 20260502210216 | 13 | 135 | 4.8 | 6.4 | 0.00 | 0.00 | 0.00 | ||
| 20260502205814 | 13 | 135 | 3.2 | 6.4 | 0.00 | 0.00 | 0.00 | ||
| 20260502205413 | 14 | 135 | 3.2 | 4.8 | 0.00 | 0.00 | 0.00 | ||
| 20260502204609 | 13 | 135 | 3.2 | 4.8 | 0.00 | 0.00 | 0.00 | ||
| 20260502204201 | 13 | 135 | 3.2 | 4.8 | 0.00 | 0.00 | 0.00 | ||
| 20260502203759 | 13 | 135 | 1.6 | 4.8 | 0.00 | 0.00 | 0.00 | ||
| 20260502203358 | 14 | 135 | 4.8 | 6.4 | 0.00 | 0.00 | 0.00 | ||
| 20260502202956 | 14 | 135 | 1.6 | 3.2 | 0.00 | 0.00 | 0.00 | ||
| 20260502202554 | 14 | 135 | 4.8 | 6.4 | 0.00 | 0.00 | 0.00 | ||
| 20260502202153 | 14 | 157 | 3.2 | 4.8 | 0.00 | 0.00 | 0.00 | ||
| 20260502201751 | 14 | 157 | 3.2 | 4.8 | 0.00 | 0.00 | 0.00 | ||
| 20260502201348 | 15 | 157 | 3.2 | 4.8 | 0.00 | 0.00 | 0.00 | ||
| 20260502200947 | 14 | 157 | 3.2 | 4.8 | 0.00 | 0.00 | 0.00 | ||
| 20260502200545 | 15 | 192 | 6.4 | 11.3 | 0.00 | 0.00 | 0.00 | ||
| 20260502200137 | 15 | 111 | 6.4 | 6.4 | 0.00 | 0.00 | 0.00 | ||
| 20260502195734 | 15 | 111 | 6.4 | 8.0 | 0.00 | 0.00 | 0.00 | ||
| 20260502195333 | 15 | 111 | 4.8 | 6.4 | 0.00 | 0.00 | 0.00 | ||
| 20260502194530 | 15 | 136 | 4.8 | 4.8 | 0.00 | 0.00 | 0.00 | ||
| 20260502194128 | 15 | 157 | 3.2 | 4.8 | 0.00 | 0.00 | 0.00 | ||
| 20260502193726 | 15 | 180 | 3.2 | 3.2 | 0.00 | 0.00 | 0.00 | ||
| 20260502193325 | 16 | 120 | 3.2 | 4.8 | 0.00 | 0.00 | 0.00 | ||
| 20260502192924 | 16 | 69 | 4.8 | 9.7 | 0.00 | 0.00 | 0.00 | ||
| 20260502192522 | 16 | 56 | 6.4 | 11.3 | 0.00 | 0.00 | 0.00 | ||
| 20260502192113 | 17 | 62 | 6.4 | 11.3 | 0.00 | 0.00 | 0.00 | ||
| 20260502191711 | 17 | 62 | 8.0 | 12.9 | 0.00 | 0.00 | 0.00 | ||
| 20260502191310 | 17 | 61 | 9.7 | 12.9 | 0.00 | 0.00 | 0.00 | ||
| 20260502190909 | 17 | 58 | 8.0 | 12.9 | 0.00 | 0.00 | 0.00 | ||
| 20260502190506 | 17 | 45 | 8.0 | 12.9 | 0.00 | 0.00 | 0.00 | ||
| 20260502190105 | 17 | 50 | 9.7 | 12.9 | 0.00 | 0.00 | 0.00 | ||
| 20260502185703 | 17 | 42 | 11.3 | 14.5 | 0.00 | 0.00 | 0.00 | ||
| 20260502185305 | 17 | 47 | 11.3 | 14.5 | 0.00 | 0.00 | 0.00 | ||
| 20260502184900 | 17 | 48 | 11.3 | 14.5 | 0.00 | 0.00 | 0.00 | ||
| 20260502184458 | 18 | 45 | 12.9 | 14.5 | 0.00 | 0.00 | 0.00 | ||
| 20260502184051 | 18 | 44 | 12.9 | 16.1 | 0.00 | 0.00 | 0.00 | ||
| 20260502183649 | 18 | 42 | 9.7 | 14.5 | 0.00 | 0.00 | 0.00 | ||
| 20260502183247 | 18 | 35 | 9.7 | 12.9 | 0.00 | 0.00 | 0.00 | ||
| 20260502182846 | 18 | 40 | 9.7 | 12.9 | 0.00 | 0.00 | 0.00 | ||
| 20260502182444 | 18 | 37 | 8.0 | 12.9 | 0.00 | 0.00 | 0.00 | ||
| 20260502182042 | 18 | 22 | 9.7 | 12.9 | 0.00 | 0.00 | 0.00 | ||
| 20260502181640 | 18 | 21 | 9.7 | 11.3 | 0.00 | 0.00 | 0.00 | ||
| 20260502181238 | 18 | 20 | 9.7 | 12.9 | 0.00 | 0.00 | 0.00 | ||
| 20260502180838 | 18 | 36 | 6.4 | 9.7 | 0.00 | 0.00 | 0.00 | ||
| 20260502180435 | 19 | 40 | 8.0 | 14.5 | 0.00 | 0.00 | 0.00 | ||
| 20260502170357 | 21 | 75 | 8.0 | 12.9 | 0.00 | 0.00 | 0.00 | ||
| 20260502163941 | 22 | 74 | 9.7 | 14.5 | 0.00 | 0.00 | 0.00 | ||
| 20260502163539 | 22 | 72 | 9.7 | 16.1 | 0.00 | 0.00 | 0.00 | ||
| 20260502163137 | 23 | 71 | 8.0 | 14.5 | 0.00 | 0.00 | 0.00 | ||
| 20260502162736 | 23 | 25 | 4.8 | 11.3 | 0.00 | 0.00 | 0.00 | ||
| 20260502162334 | 23 | 35 | 8.0 | 9.7 | 0.00 | 0.00 | 0.00 | ||
| 20260502161933 | 24 | 48 | 6.4 | 8.0 | 0.00 | 0.00 | 0.00 | ||
| 20260502161530 | 25 | 18 | 3.2 | 9.7 | 0.00 | 0.00 | 0.00 | ||
| 20260502161129 | 24 | 27 | 8.0 | 14.5 | 0.00 | 0.00 | 0.00 | ||
| 20260502160728 | 25 | 55 | 4.8 | 8.0 | 0.00 | 0.00 | 0.00 | ||
| 20260502160326 | 23 | 40 | 6.4 | 14.5 | 0.00 | 0.00 | 0.00 | ||
| 20260502152305 | 22 | 52 | 8.0 | 12.9 | 0.00 | 0.00 | 0.00 | ||
| 20260502151854 | 22 | 23 | 8.0 | 14.5 | 0.00 | 0.00 | 0.00 | ||
| 20260502151453 | 22 | 33 | 6.4 | 12.9 | 0.00 | 0.00 | 0.00 | ||
| 20260502151052 | 22 | 54 | 12.9 | 20.9 | 0.00 | 0.00 | 0.00 | ||
| 20260502150649 | 22 | 38 | 8.0 | 14.5 | 0.00 | 0.00 | 0.00 | ||
| 20260502150248 | 22 | 39 | 11.3 | 16.1 | 0.00 | 0.00 | 0.00 | ||
| 20260502130541 | 23 | 74 | 4.8 | 16.1 | 0.00 | 0.00 | 0.00 | ||
| 20260502130139 | 23 | 48 | 3.2 | 8.0 | 0.00 | 0.00 | 0.00 | ||
| 20260502123723 | 22 | 26 | 8.0 | 11.3 | 0.00 | 0.00 | 0.00 | ||
| 20260502123321 | 22 | 70 | 4.8 | 16.1 | 0.00 | 0.00 | 0.00 | ||
| 20260502122919 | 22 | 77 | 8.0 | 11.3 | 0.00 | 0.00 | 0.00 | ||
| 20260502122518 | 22 | 87 | 6.4 | 14.5 | 0.00 | 0.00 | 0.00 | ||
| 20260502122116 | 22 | 63 | 11.3 | 17.7 | 0.00 | 0.00 | 0.00 | ||
| 20260502121715 | 22 | 23 | 11.3 | 17.7 | 0.00 | 0.00 | 0.00 | ||
| 20260502121312 | 22 | 9 | 14.5 | 19.3 | 0.00 | 0.00 | 0.00 | ||
| 20260502120911 | 22 | 28 | 6.4 | 16.1 | 0.00 | 0.00 | 0.00 | ||
| 20260502120510 | 22 | 79 | 8.0 | 9.7 | 0.00 | 0.00 | 0.00 | ||
| 20260502120108 | 22 | 15 | 8.0 | 17.7 | 0.00 | 0.00 | 0.00 | ||
| 20260502115659 | 22 | 9 | 6.4 | 9.7 | 0.00 | 0.00 | 0.00 | ||
| 20260502115257 | 22 | 11 | 12.9 | 19.3 | 0.00 | 0.00 | 0.00 | ||
| 20260502114856 | 21 | 353 | 6.4 | 14.5 | 0.00 | 0.00 | 0.00 | ||
| 20260502114455 | 22 | 19 | 11.3 | 17.7 | 0.00 | 0.00 | 0.00 | ||
| 20260502114052 | 22 | 2 | 4.8 | 17.7 | 0.00 | 0.00 | 0.00 | ||
| 20260502113651 | 22 | 23 | 9.7 | 17.7 | 0.00 | 0.00 | 0.00 | ||
| 20260502112848 | 21 | 345 | 8.0 | 12.9 | 0.00 | 0.00 | 0.00 | ||
| 20260502112447 | 22 | 42 | 9.7 | 16.1 | 0.00 | 0.00 | 0.00 | ||
| 20260502112044 | 22 | 55 | 8.0 | 14.5 | 0.00 | 0.00 | 0.00 | ||
| 20260502111636 | 22 | 354 | 8.0 | 12.9 | 0.00 | 0.00 | 0.00 | ||
| 20260502111235 | 21 | 332 | 12.9 | 17.7 | 0.00 | 0.00 | 0.00 | ||
| 20260502110834 | 21 | 350 | 6.4 | 14.5 | 0.00 | 0.00 | 0.00 | ||
| 20260502110432 | 21 | 1 | 11.3 | 17.7 | 0.00 | 0.00 | 0.00 | ||
| 20260502110030 | 21 | 336 | 6.4 | 12.9 | 0.00 | 0.00 | 0.00 | ||
| 20260502105227 | 21 | 343 | 9.7 | 14.5 | 0.00 | 0.00 | 0.00 | ||
| 20260502104825 | 21 | 4 | 6.4 | 12.9 | 0.00 | 0.00 | 0.00 | ||
| 20260502104424 | 21 | 343 | 6.4 | 11.3 | 0.00 | 0.00 | 0.00 | ||
| 20260502104022 | 21 | 17 | 9.7 | 16.1 | 0.00 | 0.00 | 0.00 | ||
| 20260502103614 | 21 | 359 | 6.4 | 12.9 | 0.00 | 0.00 | 0.00 | ||
| 20260502103211 | 21 | 42 | 3.2 | 8.0 | 0.00 | 0.00 | 0.00 | ||
| 20260502102810 | 21 | 10 | 6.4 | 11.3 | 0.00 | 0.00 | 0.00 | ||
| 20260502102409 | 21 | 8 | 9.7 | 17.7 | 0.00 | 0.00 | 0.00 | ||
| 20260502102007 | 21 | 356 | 6.4 | 14.5 | 0.00 | 0.00 | 0.00 | ||
| 20260502101606 | 20 | 328 | 6.4 | 12.9 | 0.00 | 0.00 | 0.00 | ||
| 20260502101203 | 21 | 31 | 3.2 | 9.7 | 0.00 | 0.00 | 0.00 | ||
| 20260502100802 | 20 | 73 | 16.1 | 20.9 | 0.00 | 0.00 | 0.00 | ||
| 20260502091526 | 20 | 82 | 12.9 | 20.9 | 0.00 | 0.00 | 0.00 | ||
| 20260502091124 | 20 | 55 | 12.9 | 19.3 | 0.00 | 0.00 | 0.00 | ||
| 20260502090723 | 20 | 18 | 8.0 | 16.1 | 0.00 | 0.00 | 0.00 | ||
| 20260502090321 | 20 | 180 | 1.6 | 6.4 | 0.00 | 0.00 | 0.00 | ||
| 20260502071417 | 17 | 225 | 0.0 | 3.2 | 0.00 | 0.00 | 0.00 | ||
| 20260502071015 | 18 | 202 | 1.6 | 4.8 | 0.00 | 0.00 | 0.00 | ||
| 20260502070613 | 20 | 189 | 1.6 | 6.4 | 0.00 | 0.00 | 0.00 | ||
| 20260502070212 | 21 | 157 | 1.6 | 4.8 | 0.00 | 0.00 | 0.00 | ||
| 20260502065810 | 18 | 146 | 3.2 | 6.4 | 0.00 | 0.00 | 0.00 | ||
| 20260502065409 | 17 | 135 | 1.6 | 4.8 | 0.00 | 0.00 | 0.00 | ||
| 20260502065007 | 17 | 135 | 0.0 | 1.6 | 0.00 | 0.00 | 0.00 | ||
| 20260502064605 | 17 | 135 | 1.6 | 4.8 | 0.00 | 0.00 | 0.00 | ||
| 20260502064204 | 18 | 135 | 1.6 | 3.2 | 0.00 | 0.00 | 0.00 | ||
| 20260502063802 | 18 | 135 | 3.2 | 4.8 | 0.00 | 0.00 | 0.00 | ||
| 20260502063354 | 17 | 135 | 0.0 | 3.2 | 0.00 | 0.00 | 0.00 | ||
| 20260502062951 | 17 | 135 | 0.0 | 0.0 | 0.00 | 0.00 | 0.00 | ||
| 20260502062550 | 18 | 135 | 0.0 | 3.2 | 0.00 | 0.00 | 0.00 | ||
| 20260502062149 | 17 | 135 | 0.0 | 4.8 | 0.00 | 0.00 | 0.00 | ||
| 20260502061748 | 18 | 135 | 0.0 | 3.2 | 0.00 | 0.00 | 0.00 | ||
| 20260502061345 | 17 | 135 | 0.0 | 1.6 | 0.00 | 0.00 | 0.00 | ||
| 20260502060944 | 17 | 135 | 1.6 | 3.2 | 0.00 | 0.00 | 0.00 | ||
| 20260502060543 | 16 | 135 | 0.0 | 3.2 | 0.00 | 0.00 | 0.00 | ||
| 20260502060142 | 16 | 135 | 3.2 | 4.8 | 0.00 | 0.00 | 0.00 | ||
| 20260502055738 | 16 | 135 | 1.6 | 3.2 | 0.00 | 0.00 | 0.00 | ||
| 20260502055330 | 15 | 135 | 0.0 | 3.2 | 0.00 | 0.00 | 0.00 | ||
| 20260502054929 | 16 | 135 | 0.0 | 3.2 | 0.00 | 0.00 | 0.00 | ||
| 20260502054528 | 15 | 135 | 1.6 | 3.2 | 0.00 | 0.00 | 0.00 | ||
| 20260502054127 | 15 | 135 | 1.6 | 3.2 | 0.00 | 0.00 | 0.00 | ||
| 20260502053724 | 15 | 135 | 1.6 | 3.2 | 0.00 | 0.00 | 0.00 | ||
| 20260502053323 | 14 | 135 | 0.0 | 3.2 | 0.00 | 0.00 | 0.00 | ||
| 20260502052921 | 14 | 135 | 0.0 | 3.2 | 0.00 | 0.00 | 0.00 | ||
| 20260502052520 | 14 | 135 | 1.6 | 3.2 | 0.00 | 0.00 | 0.00 | ||
| 20260502052118 | 13 | 135 | 0.0 | 1.6 | 0.00 | 0.00 | 0.00 | ||
| 20260502051716 | 13 | 135 | 1.6 | 6.4 | 0.00 | 0.00 | 0.00 | ||
| 20260502051308 | 12 | 135 | 1.6 | 4.8 | 0.00 | 0.00 | 0.00 | ||
| 20260502050906 | 12 | 135 | 3.2 | 8.0 | 0.00 | 0.00 | 0.00 | ||
| 20260502050504 | 12 | 135 | 4.8 | 6.4 | 0.00 | 0.00 | 0.00 | ||
| 20260502045701 | 12 | 135 | 0.0 | 3.2 | 0.00 | 0.00 | 0.00 | ||
| 20260502045300 | 11 | 135 | 0.0 | 0.0 | 0.00 | 0.00 | 0.00 | ||
| 20260502044857 | 11 | 135 | 0.0 | 1.6 | 0.00 | 0.00 | 0.00 | ||
| 20260502044456 | 11 | 135 | 3.2 | 4.8 | 0.00 | 0.00 | 0.00 | ||
| 20260502044055 | 11 | 135 | 0.0 | 3.2 | 0.00 | 0.00 | 0.00 | ||
| 20260502043653 | 11 | 135 | 1.6 | 3.2 | 0.00 | 0.00 | 0.00 | ||
| 20260502043245 | 10 | 135 | 0.0 | 4.8 | 0.00 | 0.00 | 0.00 | ||
| 20260502042842 | 10 | 135 | 3.2 | 6.4 | 0.00 | 0.00 | 0.00 | ||
| 20260502042441 | 11 | 136 | 4.8 | 8.0 | 0.00 | 0.00 | 0.00 | ||
| 20260502042041 | 10 | 157 | 3.2 | 6.4 | 0.00 | 0.00 | 0.00 | ||
| 20260502041639 | 10 | 139 | 3.2 | 9.7 | 0.00 | 0.00 | 0.00 |